EW7356 Weather Reports


Display with metric or nautical units.
time (UTC)temp
F
wind
direction
speed
MPH
gust
MPH
rain 1hr
in
rain 24hr
in
rain mn
in
humidity
%
barometer
mb
20260510112711 45 0 0.0 3.0 0.00 0.48 0.01 98 1011.0
20260510112028 45 90 0.0 3.0 0.00 0.48 0.01 97 1010.9
20260510111542 44 90 1.0 2.0 0.00 0.48 0.01 97 1010.9
20260510111029 44 0 0.0 2.0 0.00 0.48 0.01 97 1010.7
20260510110531 44 0 0.0 2.0 0.00 0.48 0.01 97 1010.4
20260510110042 44 0 0.0 2.0 0.00 0.48 0.01 98 1010.3
20260510105527 44 92 0.0 2.0 0.00 0.48 0.01 98 1010.2
20260510105028 44 92 0.0 3.0 0.00 0.48 0.01 97 1010.2
20260510104542 44 83 0.0 3.0 0.00 0.48 0.01 98 1010.0
20260510104030 44 0 0.0 6.0 0.00 0.48 0.01 98 1010.0
20260510103529 44 132 0.0 6.0 0.00 0.48 0.01 97 1009.9
20260510103035 44 144 1.0 6.0 0.00 0.48 0.01 97 1009.9
20260510102530 44 118 1.0 7.0 0.00 0.48 0.01 97 1009.8
20260510102033 43 130 1.0 7.0 0.00 0.48 0.01 97 1009.4
20260510101535 43 117 1.0 4.0 0.00 0.48 0.01 97 1009.1
20260510101032 43 67 2.0 4.0 0.00 0.48 0.01 97 1009.2
20260510100534 43 66 2.0 4.0 0.00 0.48 0.01 97 1009.3
20260510095530 43 9 1.0 3.0 0.00 0.48 0.01 97 1009.4
20260510095032 43 0 1.0 3.0 0.00 0.48 0.01 97 1009.4
20260510094552 43 54 0.0 3.0 0.00 0.48 0.01 97 1009.4
20260510094029 43 0 0.0 2.0 0.00 0.48 0.01 97 1009.1
20260510093531 43 0 0.0 2.0 0.00 0.48 0.01 97 1009.1
20260510093038 43 0 0.0 1.0 0.00 0.48 0.01 97 1009.0
20260510092531 43 0 0.0 1.0 0.00 0.48 0.01 97 1009.2
20260510092029 43 0 0.0 2.0 0.00 0.48 0.01 97 1009.3
20260510091534 43 0 0.0 2.0 0.00 0.48 0.01 97 1009.3
20260510091029 43 0 0.0 2.0 0.00 0.48 0.01 97 1009.3
20260510090530 43 0 0.0 3.0 0.00 0.48 0.01 97 1009.1
20260510090051 43 0 0.0 3.0 0.00 0.48 0.01 97 1009.3
20260510085529 43 0 0.0 0.0 0.00 0.48 0.01 97 1009.5
20260510085032 43 0 0.0 0.0 0.00 0.48 0.01 97 1009.5
20260510084603 43 0 0.0 0.0 0.00 0.48 0.01 97 1009.6
20260510084033 43 0 0.0 0.0 0.00 0.48 0.01 97 1009.5
20260510083530 43 0 0.0 0.0 0.00 0.48 0.01 97 1009.3
20260510083039 43 0 0.0 0.0 0.00 0.48 0.01 97 1009.4
20260510082529 43 0 0.0 0.0 0.00 0.48 0.01 97 1009.5
20260510082029 43 0 0.0 0.0 0.00 0.48 0.01 97 1009.6
20260510081549 43 0 0.0 0.0 0.00 0.48 0.01 97 1009.6
20260510081029 43 0 0.0 0.0 0.00 0.48 0.01 97 1009.6
20260510080528 43 0 0.0 0.0 0.00 0.48 0.01 97 1009.7
20260510080038 43 0 0.0 0.0 0.00 0.48 0.01 97 1009.7
20260510075530 43 0 0.0 0.0 0.00 0.48 0.01 97 1009.6
20260510075030 43 0 0.0 0.0 0.00 0.48 0.01 97 1009.4
20260510074553 42 0 0.0 0.0 0.00 0.48 0.01 97 1009.6
20260510074029 42 0 0.0 2.0 0.00 0.48 0.01 97 1009.6
20260510073530 42 0 0.0 2.0 0.00 0.48 0.01 97 1009.5
20260510073044 42 39 0.0 1.0 0.01 0.48 0.01 97 1009.6
20260510072530 42 0 0.0 2.0 0.01 0.48 0.01 97 1009.4
20260510072031 42 39 0.0 4.0 0.01 0.48 0.01 97 1009.4
20260510071545 42 39 1.0 4.0 0.01 0.48 0.01 97 1009.4
20260510071029 42 53 1.0 4.0 0.01 0.48 0.01 97 1009.5
20260510070530 42 101 0.0 2.0 0.01 0.48 0.01 97 1009.7
20260510070045 42 100 0.0 2.0 0.01 0.48 0.01 97 1009.6
20260510065527 42 100 0.0 2.0 0.01 0.48 0.01 97 1009.7
20260510065030 42 0 0.0 2.0 0.01 0.48 0.01 97 1009.8
20260510064538 42 0 0.0 0.0 0.01 0.48 0.01 97 1009.9
20260510064030 42 0 0.0 1.0 0.01 0.48 0.01 97 1010.0
20260510063530 42 0 0.0 1.0 0.00 0.47 0.00 97 1010.0
20260510063048 42 0 0.0 2.0 0.00 0.47 0.00 97 1010.0
20260510062530 42 0 0.0 2.0 0.00 0.47 0.00 97 1009.9
20260510062034 42 0 0.0 1.0 0.00 0.47 0.00 97 1009.8
20260510061543 42 0 0.0 1.0 0.00 0.47 0.00 97 1009.8
20260510061033 42 0 0.0 1.0 0.00 0.47 0.00 97 1009.8
20260510060529 42 0 0.0 1.0 0.00 0.47 0.00 97 1009.7
20260510060039 42 0 0.0 2.0 0.00 0.47 0.00 97 1009.8
20260510055531 42 0 0.0 2.0 0.00 0.47 0.00 97 1009.8
20260510055029 42 78 1.0 2.0 0.00 0.47 0.00 97 1009.9
20260510054540 42 71 0.0 2.0 0.00 0.47 0.00 97 1009.8
20260510054029 42 0 0.0 2.0 0.00 0.47 0.00 97 1009.7
20260510053530 42 71 0.0 2.0 0.00 0.47 0.00 97 1009.7
20260510053040 42 0 0.0 2.0 0.00 0.47 0.00 97 1009.9
20260510052529 42 71 0.0 1.0 0.00 0.47 0.00 97 1009.8
20260510052030 42 0 0.0 1.0 0.00 0.47 0.00 97 1009.9
20260510051547 42 0 0.0 4.0 0.00 0.47 0.00 97 1009.9
20260510051029 42 0 1.0 4.0 0.00 0.47 0.00 97 1010.0
20260510050529 42 60 1.0 3.0 0.00 0.47 0.00 97 1010.1
20260510050044 42 46 0.0 0.0 0.00 0.47 0.00 97 1010.2
20260510045529 42 0 0.0 0.0 0.00 0.47 0.00 97 1010.2
20260510045030 42 0 0.0 0.0 0.00 0.47 0.00 97 1010.2
20260510044538 42 0 0.0 0.0 0.00 0.47 0.00 97 1010.1
20260510044029 42 0 0.0 0.0 0.00 0.47 0.00 97 1010.2
20260510043533 42 0 0.0 3.0 0.00 0.47 0.00 97 1010.2
20260510043043 42 0 0.0 3.0 0.00 0.47 0.00 97 1010.2
20260510042532 42 53 0.0 3.0 0.00 0.47 0.00 97 1010.3
20260510042029 42 0 0.0 3.0 0.00 0.47 0.00 97 1010.3
20260510041533 42 0 1.0 3.0 0.00 0.47 0.00 97 1010.3
20260510041030 42 153 1.0 3.0 0.00 0.47 0.00 97 1010.3
20260510040529 42 0 0.0 2.0 0.00 0.47 0.00 97 1010.3
20260510040056 42 30 0.0 2.0 0.00 0.47 0.00 97 1010.2
20260510035529 42 23 0.0 2.0 0.00 0.47 0.47 97 1010.3
20260510035030 42 23 0.0 2.0 0.00 0.47 0.47 97 1010.3
20260510034546 42 0 0.0 3.0 0.00 0.47 0.47 97 1010.3
20260510034029 42 0 1.0 5.0 0.00 0.47 0.47 97 1010.3
20260510033529 42 31 0.0 5.0 0.00 0.47 0.47 97 1010.1
20260510033048 42 138 1.0 4.0 0.00 0.47 0.47 97 1010.4
20260510032529 42 0 0.0 3.0 0.00 0.47 0.47 97 1010.3
20260510032029 42 30 1.0 3.0 0.00 0.47 0.47 97 1010.3
20260510031540 42 0 1.0 3.0 0.00 0.47 0.47 97 1010.5
20260510031031 42 207 0.0 2.0 0.00 0.47 0.47 97 1010.6
20260510030529 42 0 0.0 2.0 0.00 0.47 0.47 97 1010.6
20260510030047 42 0 0.0 2.0 0.00 0.47 0.47 97 1010.6
20260510025533 42 0 0.0 2.0 0.00 0.47 0.47 97 1010.7
20260510025029 42 84 0.0 3.0 0.00 0.47 0.47 97 1010.9
20260510024545 42 0 0.0 3.0 0.00 0.47 0.47 97 1011.0
20260510024029 42 0 0.0 2.0 0.00 0.47 0.47 97 1010.8
20260510023531 42 161 0.0 2.0 0.00 0.47 0.47 97 1010.9
20260510023039 42 0 0.0 2.0 0.00 0.47 0.47 97 1010.8
20260510022529 42 154 0.0 3.0 0.00 0.47 0.47 96 1010.8
20260510022030 42 0 0.0 3.0 0.00 0.47 0.47 97 1010.7
20260510021540 42 165 0.0 4.0 0.00 0.47 0.47 97 1010.9
20260510021029 42 166 1.0 4.0 0.00 0.47 0.47 96 1011.0
20260510020530 42 0 0.0 5.0 0.00 0.47 0.47 96 1011.0
20260510020045 42 17 0.0 5.0 0.00 0.47 0.47 96 1011.1
20260510015530 42 0 0.0 4.0 0.00 0.47 0.47 96 1011.1
20260510015029 42 0 0.0 3.0 0.00 0.47 0.47 96 1011.0
20260510014543 42 0 0.0 3.0 0.00 0.47 0.47 96 1010.9
20260510014029 42 0 0.0 3.0 0.00 0.47 0.47 96 1010.9
20260510013530 42 360 0.0 2.0 0.00 0.47 0.47 96 1011.0
20260510013044 42 22 0.0 2.0 0.00 0.47 0.47 96 1011.1
20260510012528 42 0 0.0 3.0 0.00 0.47 0.47 96 1011.1
20260510012033 42 143 0.0 4.0 0.00 0.47 0.47 96 1011.1
20260510011542 42 0 0.0 4.0 0.00 0.47 0.47 96 1011.2
20260510011030 42 0 0.0 4.0 0.00 0.47 0.47 96 1011.3
20260510010532 42 146 0.0 4.0 0.00 0.47 0.47 96 1011.2
20260510010041 42 69 0.0 4.0 0.00 0.47 0.47 96 1011.3
20260510005529 42 0 0.0 4.0 0.00 0.47 0.47 96 1011.1
20260510005030 42 89 1.0 5.0 0.00 0.47 0.47 96 1011.0
20260510004540 42 146 0.0 5.0 0.00 0.47 0.47 96 1011.0
20260510004029 42 165 0.0 3.0 0.00 0.47 0.47 96 1010.9
20260510003530 42 0 0.0 4.0 0.00 0.47 0.47 96 1010.8
20260510003039 42 53 0.0 4.0 0.00 0.47 0.47 96 1010.8
20260510002529 42 88 0.0 3.0 0.00 0.47 0.47 96 1010.8
20260510002028 42 47 1.0 4.0 0.00 0.47 0.47 96 1010.7
20260510001545 42 225 1.0 7.0 0.00 0.47 0.47 96 1010.7
20260510001032 42 167 1.0 8.0 0.00 0.47 0.47 96 1010.6
20260510000528 42 83 1.0 9.0 0.00 0.47 0.47 96 1010.5
20260510000059 42 138 1.0 9.0 0.00 0.47 0.47 96 1010.5
20260509235533 42 0 2.0 8.0 0.00 0.47 0.47 96 1010.3
20260509235030 42 59 1.0 6.0 0.00 0.47 0.47 96 1010.2
20260509234553 42 146 2.0 8.0 0.00 0.47 0.47 96 1010.2
20260509234029 42 172 2.0 11.0 0.00 0.47 0.47 96 1010.3
20260509233533 42 149 3.0 11.0 0.00 0.47 0.47 96 1010.4
20260509233046 42 150 1.0 5.0 0.00 0.47 0.47 96 1010.4
20260509232533 42 136 0.0 4.0 0.00 0.47 0.47 96 1010.4
20260509232029 42 123 1.0 4.0 0.00 0.47 0.47 96 1010.3
20260509231540 42 133 0.0 3.0 0.00 0.47 0.47 96 1010.2
20260509231029 42 171 0.0 5.0 0.00 0.47 0.47 96 1010.2
20260509230533 42 175 1.0 7.0 0.01 0.47 0.47 96 1010.2
20260509230038 42 146 2.0 9.0 0.01 0.47 0.47 95 1010.3
20260509225532 42 123 1.0 9.0 0.01 0.47 0.47 95 1010.3
20260509225030 42 122 1.0 7.0 0.01 0.47 0.47 95 1010.4
20260509224538 42 130 2.0 6.0 0.01 0.47 0.47 95 1010.3
20260509224029 42 170 1.0 8.0 0.01 0.47 0.47 95 1010.4
20260509223531 42 145 1.0 8.0 0.01 0.47 0.47 95 1010.4
20260509223043 42 96 1.0 7.0 0.01 0.47 0.47 95 1010.3
20260509222530 42 123 2.0 7.0 0.01 0.47 0.47 95 1010.4
20260509222035 42 140 1.0 7.0 0.02 0.47 0.47 95 1010.4
20260509221542 42 139 2.0 9.0 0.02 0.47 0.47 95 1010.4
20260509221030 42 159 2.0 9.0 0.02 0.47 0.47 95 1010.5
20260509220530 42 103 0.0 4.0 0.02 0.46 0.46 95 1010.5
20260509220039 42 129 1.0 6.0 0.02 0.46 0.46 95 1010.7
20260509215531 43 235 1.0 7.0 0.03 0.46 0.46 95 1010.5
20260509215031 43 101 2.0 7.0 0.03 0.46 0.46 95 1010.5
20260509214540 42 145 2.0 10.0 0.04 0.46 0.46 95 1010.7
20260509214027 43 143 3.0 10.0 0.04 0.46 0.46 95 1010.6
20260509213531 43 161 1.0 8.0 0.05 0.46 0.46 95 1010.7
20260509213041 43 169 2.0 8.0 0.06 0.46 0.46 95 1010.7
20260509212527 43 128 2.0 11.0 0.07 0.46 0.46 95 1010.7
20260509212031 43 173 3.0 11.0 0.06 0.45 0.45 95 1010.8
20260509211534 43 153 4.0 8.0 0.07 0.45 0.45 95 1010.8
20260509211030 43 126 2.0 7.0 0.08 0.45 0.45 95 1010.7
20260509210531 43 120 2.0 10.0 0.07 0.44 0.44 95 1010.6
20260509210041 43 123 4.0 10.0 0.08 0.44 0.44 95 1010.7
20260509205530 43 100 3.0 8.0 0.08 0.43 0.43 95 1010.8
20260509205027 43 125 3.0 7.0 0.08 0.43 0.43 95 1010.7
20260509204550 43 82 1.0 7.0 0.08 0.42 0.42 95 1010.7
20260509204028 43 0 2.0 7.0 0.09 0.42 0.42 95 1010.6
20260509203529 42 0 2.0 8.0 0.09 0.41 0.41 95 1010.6
20260509203040 42 126 2.0 8.0 0.08 0.40 0.40 95 1010.9
20260509202529 42 170 3.0 8.0 0.08 0.39 0.39 95 1010.9
20260509202027 42 106 2.0 11.0 0.09 0.39 0.39 95 1011.1
20260509201540 43 132 3.0 11.0 0.08 0.38 0.38 95 1010.9
20260509201032 42 114 2.0 7.0 0.07 0.37 0.37 95 1011.1
20260509200532 42 144 3.0 7.0 0.08 0.37 0.37 95 1011.1
20260509200049 42 134 2.0 6.0 0.07 0.36 0.36 95 1011.0
20260509195531 42 128 2.0 6.0 0.07 0.35 0.35 94 1011.1
20260509195029 42 130 1.0 5.0 0.08 0.35 0.35 94 1011.2
20260509194543 42 0 1.0 5.0 0.07 0.34 0.34 94 1011.2
20260509194031 42 169 1.0 5.0 0.07 0.33 0.33 94 1011.2
20260509193530 42 157 1.0 5.0 0.07 0.32 0.32 94 1011.3
20260509193041 42 0 0.0 4.0 0.08 0.32 0.32 94 1011.4
20260509192529 42 163 0.0 4.0 0.07 0.31 0.31 94 1011.4
20260509192032 42 127 1.0 5.0 0.07 0.30 0.30 94 1011.5
20260509191540 42 9 1.0 5.0 0.08 0.30 0.30 94 1011.5
20260509191030 42 228 1.0 9.0 0.09 0.30 0.30 94 1011.6
20260509190529 42 139 0.0 9.0 0.09 0.29 0.29 94 1011.5
20260509190040 42 148 2.0 9.0 0.10 0.29 0.29 94 1011.5
20260509185529 42 119 1.0 9.0 0.10 0.28 0.28 94 1011.5
20260509185029 42 89 3.0 9.0 0.10 0.27 0.27 94 1011.7
20260509184548 42 171 1.0 7.0 0.11 0.27 0.27 94 1011.7
20260509184029 42 113 2.0 8.0 0.11 0.26 0.26 94 1011.7
20260509183529 42 133 1.0 8.0 0.10 0.25 0.25 94 1011.7
20260509183043 42 113 2.0 8.0 0.10 0.24 0.24 94 1011.8
20260509182530 43 143 1.0 6.0 0.10 0.23 0.23 94 1011.8
20260509182029 43 144 1.0 6.0 0.10 0.23 0.23 94 1011.8
20260509181548 43 113 1.0 8.0 0.10 0.22 0.22 94 1011.9
20260509181030 43 129 2.0 9.0 0.10 0.21 0.21 94 1011.8
20260509180530 43 89 3.0 9.0 0.09 0.20 0.20 94 1011.9
20260509180039 43 119 1.0 6.0 0.09 0.19 0.19 94 1011.9
20260509175529 43 0 0.0 4.0 0.08 0.18 0.18 94 1012.0
20260509175029 43 0 0.0 4.0 0.07 0.17 0.17 94 1012.0
20260509174541 43 182 1.0 4.0 0.07 0.16 0.16 94 1012.0
20260509174029 43 0 1.0 6.0 0.06 0.15 0.15 94 1011.9
20260509173529 43 175 0.0 6.0 0.07 0.15 0.15 94 1012.0
20260509173037 43 145 3.0 6.0 0.06 0.14 0.14 93 1012.1
20260509172529 43 146 0.0 3.0 0.05 0.13 0.13 93 1012.1
20260509172030 43 111 0.0 3.0 0.06 0.13 0.13 93 1012.1
20260509171543 43 0 0.0 3.0 0.05 0.12 0.12 93 1012.1
20260509171029 43 87 1.0 3.0 0.04 0.11 0.11 93 1012.1
20260509170530 43 0 0.0 4.0 0.05 0.11 0.11 93 1012.1
20260509170042 43 130 1.0 4.0 0.04 0.10 0.10 93 1012.1
20260509165532 43 289 1.0 2.0 0.04 0.10 0.10 93 1012.1
20260509165029 43 0 0.0 8.0 0.05 0.10 0.10 93 1012.1
20260509164539 43 0 0.0 8.0 0.04 0.09 0.09 93 1012.3
20260509164028 43 127 2.0 8.0 0.05 0.09 0.09 93 1012.2
20260509163534 43 0 1.0 5.0 0.04 0.08 0.08 93 1012.3
20260509163039 43 182 1.0 6.0 0.04 0.08 0.08 93 1012.2
20260509162529 43 150 2.0 6.0 0.05 0.08 0.08 92 1012.3
20260509162028 43 144 3.0 6.0 0.04 0.07 0.07 92 1012.3
20260509161536 43 0 1.0 6.0 0.05 0.07 0.07 93 1012.5
20260509161029 43 170 1.0 5.0 0.05 0.07 0.07 93 1012.5
20260509160528 43 142 1.0 5.0 0.04 0.06 0.06 92 1012.5
20260509160037 43 148 1.0 9.0 0.04 0.06 0.06 92 1012.6
20260509155530 43 171 4.0 9.0 0.03 0.05 0.05 91 1012.6
20260509155029 43 141 2.0 7.0 0.04 0.05 0.05 91 1012.7
20260509154541 43 151 1.0 5.0 0.04 0.05 0.05 91 1012.7
20260509154029 43 150 2.0 5.0 0.03 0.04 0.04 91 1012.8
20260509153531 43 157 1.0 6.0 0.03 0.04 0.04 90 1012.8
20260509153046 43 134 1.0 6.0 0.04 0.04 0.04 89 1013.0
20260509152529 43 0 1.0 9.0 0.03 0.03 0.03 89 1013.1
20260509152036 43 132 3.0 9.0 0.03 0.03 0.03 88 1013.0
20260509151539 43 150 0.0 6.0 0.02 0.02 0.02 88 1012.9
20260509151029 43 148 2.0 6.0 0.02 0.02 0.02 88 1012.9
20260509150527 43 151 1.0 6.0 0.02 0.02 0.02 89 1012.9
20260509150042 43 164 2.0 6.0 0.02 0.02 0.02 87 1012.8
20260509145529 43 147 2.0 8.0 0.02 0.02 0.02 86 1012.9
20260509145029 44 134 2.0 8.0 0.01 0.01 0.01 86 1012.8
20260509144549 44 156 2.0 8.0 0.01 0.01 0.01 86 1012.8
20260509144029 44 169 3.0 8.0 0.01 0.01 0.01 84 1012.7
20260509143528 44 144 3.0 7.0 0.01 0.01 0.01 83 1012.6
20260509143051 45 157 2.0 7.0 0.00 0.00 0.00 82 1012.7
20260509142531 45 148 3.0 7.0 0.00 0.00 0.00 78 1012.7
20260509142032 45 163 2.0 7.0 0.00 0.00 0.00 77 1012.7
20260509141540 46 167 1.0 9.0 0.00 0.00 0.00 75 1012.7
20260509141031 46 186 4.0 9.0 0.00 0.00 0.00 72 1012.6
20260509140532 47 163 3.0 7.0 0.00 0.00 0.00 69 1012.7
20260509140039 47 165 2.0 7.0 0.00 0.00 0.00 65 1012.7
20260509135529 48 155 3.0 7.0 0.00 0.00 0.00 61 1012.7
20260509135035 48 179 2.0 7.0 0.00 0.00 0.00 57 1012.6
20260509134557 48 173 2.0 7.0 0.00 0.00 0.00 56 1012.5
20260509134031 48 138 2.0 8.0 0.00 0.00 0.00 56 1012.6
20260509133531 48 134 2.0 8.0 0.00 0.00 0.00 55 1012.4
20260509133044 48 165 3.0 8.0 0.00 0.00 0.00 58 1012.4
20260509132530 48 147 2.0 7.0 0.00 0.00 0.00 57 1012.6
20260509132030 48 173 3.0 7.0 0.00 0.00 0.00 55 1012.4
20260509131540 48 180 3.0 7.0 0.00 0.00 0.00 55 1012.5
20260509131031 48 161 3.0 7.0 0.00 0.00 0.00 56 1012.5
20260509130535 48 180 3.0 8.0 0.00 0.00 0.00 59 1012.4
20260509130052 48 130 2.0 8.0 0.00 0.00 0.00 58 1012.4
20260509125531 48 144 0.0 4.0 0.00 0.00 0.00 63 1012.4
20260509125031 47 146 2.0 6.0 0.00 0.00 0.00 61 1012.5
20260509124538 47 157 2.0 8.0 0.00 0.00 0.00 60 1012.7
20260509124029 47 59 3.0 8.0 0.00 0.00 0.00 61 1012.6
20260509123529 46 129 2.0 6.0 0.00 0.00 0.00 65 1012.7
20260509123048 46 107 0.0 5.0 0.00 0.00 0.00 68 1012.7
20260509122530 45 145 0.0 5.0 0.00 0.00 0.00 69 1012.8
20260509122029 45 150 1.0 5.0 0.00 0.00 0.00 69 1012.7
20260509121601 44 0 0.0 3.0 0.00 0.00 0.00 69 1012.8
20260509121030 44 0 0.0 3.0 0.00 0.00 0.00 73 1012.9
20260509120534 43 71 0.0 3.0 0.00 0.00 0.00 73 1012.7
20260509120043 42 65 0.0 2.0 0.00 0.00 0.00 75 1012.8
20260509115531 41 0 0.0 3.0 0.00 0.00 0.00 77 1012.7
20260509115029 41 0 0.0 3.0 0.00 0.00 0.00 79 1012.8
20260509114541 40 39 1.0 3.0 0.00 0.00 0.00 80 1012.9
20260509114030 39 0 0.0 2.0 0.00 0.00 0.00 80 1013.0
20260509113530 39 0 0.0 2.0 0.00 0.00 0.00 81 1012.9
20260509113041 38 0 0.0 3.0 0.00 0.00 0.00 81 1013.1